• In Czech Republic
  • List of Countries
  • For 7 days
  • Water Temperature
  • Satellite Maps
  • Weather Map
  • Weather Widgets
  • user-avatar
    Login

    Hourly Weather Nashavar

    Today, 25 February, Sunday

    Time Temperature Precipitation Wind Pressure Humidity
    00:00 +14°C° 0 mm 1 mps 733 mmHg 68%
    01:00 +14°C° 0 mm 1 mps 734 mmHg 67%
    02:00 +14°C° 0 mm 1 mps 734 mmHg 66%
    03:00 +14°C° 0 mm 1 mps 734 mmHg 65%
    04:00 +14°C° 0 mm 1 mps 734 mmHg 65%
    05:00 +13°C° 0 mm 1 mps 734 mmHg 66%
    06:00 +14°C° 0 mm 2 mps 734 mmHg 63%
    07:00 +15°C° 0 mm 2 mps 734 mmHg 61%
    08:00 +15°C° 0 mm 2 mps 735 mmHg 58%
    09:00 +17°C° 0 mm 2 mps 735 mmHg 52%
    10:00 +19°C° 0 mm 2 mps 735 mmHg 46%
    11:00 +22°C° 0 mm 1 mps 735 mmHg 41%
    12:00 +23°C° 0 mm 1 mps 735 mmHg 39%
    13:00 +23°C° 0 mm 1 mps 735 mmHg 37%
    14:00 +24°C° 0 mm 2 mps 734 mmHg 34%
    15:00 +24°C° 0 mm 2 mps 734 mmHg 35%
    16:00 +24°C° 0 mm 2 mps 734 mmHg 36%
    17:00 +24°C° 0 mm 1 mps 733 mmHg 39%
    18:00 +23°C° 0 mm 1 mps 734 mmHg 42%
    19:00 +21°C° 0 mm 1 mps 734 mmHg 45%
    20:00 +20°C° 0 mm 1 mps 734 mmHg 48%
    21:00 +20°C° 0 mm 1 mps 734 mmHg 48%
    22:00 +20°C° 0 mm 1 mps 733 mmHg 48%
    23:00 +20°C° 0 mm 1 mps 733 mmHg 48%

    Tomorrow, 26 February, Monday

    Time Temperature Precipitation Wind Pressure Humidity
    00:00 +19°C° 0 mm 1 mps 733 mmHg 47%
    01:00 +19°C° 0 mm 1 mps 733 mmHg 47%
    02:00 +19°C° 0 mm 1 mps 733 mmHg 47%
    03:00 +19°C° 0 mm 1 mps 732 mmHg 47%
    04:00 +17°C° 0 mm 2 mps 732 mmHg 46%
    05:00 +17°C° 0 mm 2 mps 732 mmHg 46%
    06:00 +18°C° 0 mm 2 mps 732 mmHg 46%
    07:00 +18°C° 0 mm 2 mps 733 mmHg 45%
    08:00 +19°C° 0 mm 2 mps 733 mmHg 45%
    09:00 +20°C° 0 mm 2 mps 733 mmHg 40%
    10:00 +23°C° 0 mm 2 mps 733 mmHg 34%
    11:00 +25°C° 0 mm 2 mps 733 mmHg 29%
    12:00 +26°C° 0 mm 2 mps 732 mmHg 27%
    13:00 +27°C° 0 mm 2 mps 732 mmHg 25%
    14:00 +28°C° 0 mm 2 mps 731 mmHg 24%
    15:00 +27°C° 0 mm 2 mps 731 mmHg 25%
    16:00 +27°C° 0 mm 1 mps 731 mmHg 27%
    17:00 +27°C° 0 mm 1 mps 731 mmHg 28%
    18:00 +26°C° 0 mm 1 mps 731 mmHg 31%
    19:00 +25°C° 0 mm 1 mps 731 mmHg 33%
    20:00 +23°C° 0 mm 1 mps 731 mmHg 36%
    21:00 +23°C° 0.1 mm 1 mps 731 mmHg 37%
    22:00 +21°C° 0.1 mm 2 mps 731 mmHg 39%
    23:00 +21°C° 0.1 mm 2 mps 731 mmHg 41%

    Day after tomorrow, 27 February, Tuesday

    Time Temperature Precipitation Wind Pressure Humidity
    00:00 +20°C° 0.1 mm 2 mps 731 mmHg 44%
    01:00 +20°C° 0.1 mm 2 mps 731 mmHg 48%
    02:00 +20°C° 0.1 mm 2 mps 731 mmHg 51%
    03:00 +19°C° 0 mm 2 mps 731 mmHg 54%
    04:00 +18°C° 0 mm 2 mps 731 mmHg 56%
    05:00 +18°C° 0 mm 2 mps 731 mmHg 59%
    06:00 +18°C° 0 mm 2 mps 731 mmHg 58%
    07:00 +18°C° 0 mm 2 mps 732 mmHg 58%
    08:00 +19°C° 0 mm 2 mps 732 mmHg 57%
    09:00 +20°C° 0 mm 2 mps 732 mmHg 51%
    10:00 +23°C° 0 mm 2 mps 732 mmHg 45%
    11:00 +24°C° 0 mm 2 mps 732 mmHg 40%
    12:00 +25°C° 0 mm 2 mps 732 mmHg 38%
    13:00 +26°C° 0 mm 2 mps 731 mmHg 36%
    14:00 +27°C° 0 mm 2 mps 731 mmHg 33%
    15:00 +27°C° 0 mm 2 mps 731 mmHg 34%
    16:00 +27°C° 0 mm 2 mps 730 mmHg 34%
    17:00 +27°C° 0 mm 2 mps 730 mmHg 34%
    18:00 +25°C° 0 mm 2 mps 730 mmHg 38%
    19:00 +24°C° 0 mm 1 mps 731 mmHg 42%
    20:00 +22°C° 0 mm 1 mps 731 mmHg 45%
    21:00 +22°C° 0 mm 1 mps 731 mmHg 46%
    22:00 +22°C° 0 mm 1 mps 732 mmHg 46%
    23:00 +22°C° 0 mm 1 mps 732 mmHg 46%

    28 February, Wednesday

    Time Temperature Precipitation Wind Pressure Humidity
    00:00 +21°C° 0 mm 1 mps 732 mmHg 46%
    01:00 +20°C° 0 mm 2 mps 732 mmHg 46%
    02:00 +20°C° 0 mm 2 mps 731 mmHg 45%
    03:00 +20°C° 0 mm 2 mps 731 mmHg 46%
    04:00 +19°C° 0 mm 2 mps 731 mmHg 46%
    05:00 +18°C° 0 mm 2 mps 731 mmHg 47%
    06:00 +19°C° 0 mm 2 mps 731 mmHg 45%
    07:00 +19°C° 0 mm 2 mps 732 mmHg 44%
    08:00 +19°C° 0 mm 2 mps 732 mmHg 43%
    09:00 +21°C° 0 mm 2 mps 732 mmHg 38%
    10:00 +24°C° 0 mm 2 mps 732 mmHg 33%
    11:00 +26°C° 0 mm 2 mps 732 mmHg 28%
    12:00 +26°C° 0 mm 2 mps 732 mmHg 27%
    13:00 +27°C° 0 mm 2 mps 731 mmHg 26%
    14:00 +28°C° 0 mm 2 mps 731 mmHg 25%
    15:00 +28°C° 0 mm 2 mps 730 mmHg 26%
    16:00 +27°C° 0 mm 2 mps 730 mmHg 27%
    17:00 +27°C° 0 mm 2 mps 730 mmHg 28%
    18:00 +26°C° 0 mm 1 mps 730 mmHg 30%
    19:00 +25°C° 0 mm 1 mps 730 mmHg 33%
    20:00 +23°C° 0 mm 1 mps 730 mmHg 35%
    21:00 +23°C° 0 mm 2 mps 731 mmHg 36%
    22:00 +23°C° 0 mm 2 mps 731 mmHg 36%
    23:00 +23°C° 0 mm 2 mps 731 mmHg 36%

    1 March, Thursday

    Time Temperature Precipitation Wind Pressure Humidity
    00:00 +21°C° 0.4 mm 3 mps 731 mmHg 41%
    01:00 +20°C° 0.4 mm 3 mps 730 mmHg 46%
    02:00 +19°C° 0.4 mm 4 mps 730 mmHg 51%
    03:00 +19°C° 0.1 mm 3 mps 730 mmHg 52%
    04:00 +19°C° 0.1 mm 3 mps 730 mmHg 54%
    05:00 +18°C° 0.1 mm 3 mps 730 mmHg 56%
    06:00 +18°C° 0 mm 3 mps 730 mmHg 55%
    07:00 +19°C° 0 mm 2 mps 730 mmHg 54%
    08:00 +19°C° 0 mm 2 mps 731 mmHg 52%
    09:00 +20°C° 0 mm 2 mps 731 mmHg 48%
    10:00 +21°C° 0 mm 2 mps 731 mmHg 44%
    11:00 +23°C° 0 mm 2 mps 731 mmHg 40%
    12:00 +21°C° 0.7 mm 3 mps 731 mmHg 45%
    13:00 +20°C° 0.7 mm 3 mps 730 mmHg 51%
    14:00 +19°C° 0.7 mm 3 mps 730 mmHg 57%
    15:00 +18°C° 1.7 mm 3 mps 730 mmHg 62%
    16:00 +17°C° 1.7 mm 3 mps 730 mmHg 68%
    17:00 +16°C° 1.7 mm 3 mps 729 mmHg 74%
    18:00 +16°C° 0.5 mm 2 mps 729 mmHg 75%
    19:00 +16°C° 0.5 mm 2 mps 730 mmHg 75%
    20:00 +16°C° 0.5 mm 2 mps 730 mmHg 76%
    21:00 +16°C° 0 mm 2 mps 730 mmHg 76%
    22:00 +15°C° 0 mm 1 mps 730 mmHg 77%
    23:00 +15°C° 0 mm 1 mps 730 mmHg 77%

    2 March, Friday

    Time Temperature Precipitation Wind Pressure Humidity
    00:00 +15°C° 0 mm 1 mps 729 mmHg 77%
    01:00 +15°C° 0 mm 1 mps 729 mmHg 76%
    02:00 +15°C° 0 mm 1 mps 729 mmHg 76%
    03:00 +15°C° 0 mm 2 mps 728 mmHg 76%
    04:00 +15°C° 0 mm 2 mps 728 mmHg 76%
    05:00 +14°C° 0 mm 2 mps 728 mmHg 75%
    06:00 +15°C° 0 mm 2 mps 728 mmHg 73%
    07:00 +16°C° 0 mm 2 mps 729 mmHg 70%
    08:00 +16°C° 0 mm 2 mps 729 mmHg 67%
    09:00 +18°C° 0 mm 2 mps 729 mmHg 61%
    10:00 +21°C° 0 mm 1 mps 729 mmHg 55%
    11:00 +22°C° 0 mm 1 mps 730 mmHg 48%
    12:00 +23°C° 0 mm 2 mps 729 mmHg 47%
    13:00 +24°C° 0 mm 2 mps 729 mmHg 45%
    14:00 +24°C° 0 mm 2 mps 728 mmHg 43%
    15:00 +24°C° 0 mm 1 mps 728 mmHg 44%
    16:00 +24°C° 0 mm 1 mps 728 mmHg 45%
    17:00 +24°C° 0 mm 1 mps 727 mmHg 45%
    18:00 +23°C° 0.1 mm 1 mps 728 mmHg 50%
    19:00 +20°C° 0.1 mm 0 mps 728 mmHg 54%
    20:00 +19°C° 0.1 mm 0 mps 728 mmHg 58%
    21:00 +19°C° 0.1 mm 0 mps 728 mmHg 60%
    22:00 +20°C° 0.1 mm 1 mps 728 mmHg 61%
    23:00 +20°C° 0.1 mm 1 mps 728 mmHg 62%
    Show more